Location: Newark
(34.9500°N, 139.9667°E)
Time: 11:13:25
(UTC+00:00)

Altair - Pass Details

Date: 19 December 2019
Orbit: 1502 x 1682 km, 47.2° (Epoch: 23 January)

Event Time Altitude Azimuth Distance (km) Brightness Sun altitude
Rises 11:19:47 0° 274° (W) 4,820 10.8 -45.9°
Reaches altitude 10° 11:23:13 10° 281° (WNW) 3,808 10.1 -46.6°
Enters shadow 11:29:22 34° 314° (NW) 2,357 8.6 -47.8°
